Theta_e
317 317 317 317 317 316 315 315 314 314 313 312 311 311 310 309 308 308 308 309 308 309 308 308 308 308 308 308 308 308 308 308 308 307 307 307 306 307 307 307 307 306 305 304 303 302 301 301 300 299 295 288
317 316 316 316 315 315 315 314 314 312 312 311 310 309 308 307 306 306 307 307 308 307 307 307 307 307 307 307 307 307 307 307 307 306 306 305 305 305 305 306 306 305 304 303 302 301 300 299 298 297 294 286
314 315 315 314 314 313 312 312 311 311 310 309 307 307 306 305 304 304 304 304 304 304 305 305 305 306 306 305 306 307 306 306 306 305 305 304 303 303 303 304 304 303 302 301 300 299 298 297 296 295 289 285
309 313 313 312 312 311 310 310 309 308 307 306 305 305 304 303 301 301 299 302 299 301 302 302 301 304 305 305 304 305 305 305 305 304 303 302 301 300 299 300 301 300 300 299 298 297 296 294 292 284 283 283
307 309 311 310 310 309 309 308 307 306 306 304 303 302 301 299 292 291 292 293 293 298 295 299 300 301 303 303 302 302 302 303 303 303 302 300 299 297 295 294 295 297 297 297 296 295 293 292 283 283 282 282
306 307 307 304 304 303 305 306 306 302 298 301 296 300 294 290 292 289 289 291 296 291 294 294 298 298 300 300 300 301 300 300 301 301 300 299 298 296 294 293 283 285 293 294 293 292 291 282 281 282 282 282
302 301 300 299 299 301 303 301 298 295 296 292 292 289 288 290 289 288 289 290 292 292 298 293 296 296 297 297 297 297 297 296 298 298 297 297 295 293 292 283 281 281 280 282 290 289 282 280 280 281 281 281
299 298 298 297 297 295 294 293 293 292 291 290 289 289 288 287 288 288 288 296 296 298 289 292 295 294 294 293 292 291 289 293 292 293 294 293 292 290 286 280 280 281 280 280 280 280 279 279 279 280 280 279
297 296 296 295 294 293 292 291 290 290 289 289 288 288 288 287 288 287 289 288 288 286 285 282 282 283 283 283 284 288 279 280 282 282 279 280 283 279 281 280 280 280 280 281 280 280 279 279 279 279 279 278
296 295 293 293 292 292 291 291 290 289 288 288 288 288 288 290 287 287 286 285 285 283 283 282 281 281 280 280 281 283 279 279 278 278 277 279 279 278 278 278 279 280 281 279 278 278 278 279 278 278 277 277
295 293 293 292 292 291 290 290 289 288 288 288 288 288 290 288 286 285 284 284 283 282 283 282 280 279 280 279 279 281 278 278 278 278 278 278 277 277 278 278 278 278 277 277 278 278 277 277 277 278 277 277
293 291 291 291 294 292 292 290 289 288 288 288 287 288 289 289 286 285 284 284 282 282 282 281 280 280 279 278 278 280 279 278 277 277 277 277 277 277 277 277 278 277 277 277 277 277 277 277 277 277 276 277
292 291 291 291 291 289 294 289 289 288 288 287 287 288 289 288 285 284 284 283 282 282 282 281 280 278 278 278 278 279 278 277 277 277 276 277 276 276 276 276 278 278 277 276 276 276 277 276 276 277 277 276
292 291 291 291 291 289 294 288 288 288 287 286 287 286 287 287 286 284 283 283 281 282 281 279 279 279 278 277 278 277 277 278 276 276 276 276 276 276 276 276 278 277 276 276 276 277 276 276 276 276 276 276
292 292 291 291 291 290 290 288 288 288 287 286 286 286 286 286 286 284 283 283 282 281 280 279 279 278 278 277 277 278 276 278 277 276 276 276 276 276 275 276 277 276 275 275 275 277 276 275 275 275 275 276
292 291 291 291 290 290 289 288 287 287 286 287 285 285 284 284 285 285 282 283 282 281 280 278 278 277 277 277 276 278 276 277 277 276 277 277 276 276 275 275 276 277 275 275 274 275 275 275 275 275 275 275
292 291 291 290 289 290 289 288 287 286 286 286 285 285 284 283 284 285 283 282 283 284 279 278 278 277 278 277 277 277 277 278 276 276 276 276 277 276 275 276 276 278 274 275 274 274 275 275 275 275 275 275
291 291 290 290 289 290 288 287 287 287 285 286 285 285 283 283 284 284 282 282 281 281 279 278 278 277 276 276 277 277 277 275 275 275 275 276 276 281 276 275 276 274 274 274 274 274 276 275 275 275 275 275
291 291 290 289 288 288 288 287 286 286 285 285 285 284 283 283 284 283 282 282 281 279 279 278 277 277 276 277 277 276 276 275 276 276 276 277 275 275 275 274 278 274 274 275 275 274 276 274 274 275 275 275
291 291 290 289 290 288 287 287 286 285 285 284 284 284 283 282 284 282 282 282 281 279 279 278 278 277 276 277 277 276 276 276 275 275 276 277 275 274 274 275 274 275 274 274 275 275 275 274 276 275 275 275
290 290 289 289 288 288 287 286 286 285 284 284 283 283 283 282 284 282 281 281 281 280 279 278 277 276 277 278 276 275 275 275 276 275 276 275 276 274 273 275 273 274 275 274 275 274 274 273 276 274 274 274
290 290 289 288 288 289 287 287 286 285 284 283 283 283 283 282 283 282 281 281 281 279 279 278 278 276 276 277 276 275 275 275 276 275 275 275 275 274 274 273 274 274 274 276 275 274 274 273 273 273 274 274
289 288 288 287 287 287 287 286 285 285 283 283 283 283 283 282 283 283 281 281 281 279 279 278 277 276 276 277 275 275 275 275 275 275 274 274 274 276 274 273 274 274 274 275 275 274 273 273 273 274 274 276
286 286 287 285 284 284 286 286 285 283 284 283 283 283 282 282 282 282 281 281 280 279 279 277 277 277 276 276 275 275 274 274 274 275 274 273 274 274 275 276 274 274 275 274 273 274 274 273 273 272 274 274
286 285 285 284 285 286 286 285 285 284 283 282 283 283 282 282 282 281 281 281 280 279 280 278 277 277 276 276 276 275 275 275 275 275 274 274 276 274 273 273 274 273 273 272 271 272 271 272 273 276 277 275
287 287 287 286 286 286 286 285 285 284 283 283 283 283 282 282 282 281 281 281 280 280 279 278 277 276 276 276 276 276 276 275 278 276 274 274 273 275 273 272 274 274 273 271 270 270 269 271 271 275 273 274
287 287 287 287 286 286 284 285 286 285 285 283 282 282 282 282 282 281 280 281 281 280 279 278 277 277 277 276 276 276 275 275 275 275 274 274 273 273 273 273 274 273 273 269 271 270 272 270 270 274 271 272
288 288 287 286 283 284 285 283 285 284 282 282 281 281 282 282 282 281 281 280 280 280 279 278 277 277 276 276 276 276 275 274 274 275 274 274 274 273 272 272 272 274 274 270 272 268 269 268 267 268 270 270
287 286 283 282 281 281 281 281 281 281 281 281 282 282 280 281 281 281 280 280 280 280 279 278 278 277 277 276 276 276 275 275 275 275 275 274 273 273 272 272 271 273 274 272 273 272 269 266 266 268 268 270
287 286 284 281 281 280 280 280 280 280 282 281 280 281 282 280 281 281 280 280 280 280 280 278 278 277 277 276 276 276 275 275 275 275 275 274 274 273 273 273 271 271 275 273 274 273 273 273 270 268 269 269
286 285 284 283 283 283 282 282 282 283 283 283 282 282 280 280 280 280 280 280 279 279 279 278 278 277 277 276 276 277 275 275 275 275 275 275 274 273 274 272 271 271 272 273 273 273 273 272 273 271 270 269
Wind_Speed
18 18 18 18 18 18 18 18 18 17 16 15 14 13 13 13 12 12 11 10 11 11 10 10 10 10 11 10 10 11 11 12 12 12 13 13 13 14 14 14 14 15 15 15 15 16 16 16 16 15 11 6
18 17 18 18 18 18 19 19 19 18 17 17 16 16 15 14 13 13 12 12 11 11 10 10 10 10 10 11 11 11 11 11 12 13 13 13 13 14 14 14 14 15 15 15 15 15 16 16 16 15 13 6
12 18 18 18 18 19 19 19 19 19 18 17 16 16 15 13 13 12 12 12 11 11 10 10 9 10 11 11 11 11 11 11 12 13 13 14 13 13 14 14 14 15 15 15 15 16 16 16 15 15 9 6
8 14 18 18 18 19 19 19 19 18 18 17 16 15 14 13 8 9 8 12 8 10 10 10 8 10 10 11 11 11 11 11 12 13 13 13 14 14 14 14 14 15 15 15 15 15 16 15 14 8 6 6
7 9 16 15 18 18 18 18 18 18 18 15 13 11 11 10 6 5 5 6 5 9 4 8 10 10 10 11 11 11 11 11 12 12 13 13 14 14 14 14 14 15 15 15 15 15 15 13 8 6 6 6
6 7 8 8 8 8 11 13 13 11 8 8 7 11 8 5 5 5 4 4 5 3 4 5 9 9 9 10 10 11 11 11 11 12 12 13 13 14 13 13 6 7 10 14 15 14 13 7 6 6 6 6
5 7 6 6 7 7 8 8 8 7 7 6 7 6 6 5 5 5 4 4 4 4 6 5 9 9 10 10 10 10 11 10 11 11 12 12 12 13 12 6 5 5 6 6 11 10 7 6 6 6 6 6
6 6 6 6 5 6 7 7 7 6 7 7 7 7 6 6 5 5 5 7 8 5 4 5 9 10 10 10 10 11 8 9 10 11 11 12 11 7 4 4 5 5 4 5 4 6 6 6 5 5 5 5
7 6 6 5 5 6 6 6 6 6 6 6 7 7 6 6 4 4 4 4 3 4 4 4 5 4 5 4 4 7 5 5 5 6 5 5 6 4 4 5 5 4 4 4 4 5 5 5 4 5 5 5
8 8 7 6 6 6 5 6 6 6 6 7 7 6 6 6 6 5 5 4 4 4 5 5 5 5 4 4 3 3 5 4 4 4 4 4 4 4 3 4 4 3 3 3 4 4 4 4 4 4 4 4
7 7 7 7 6 7 7 6 7 6 6 7 7 7 7 7 6 6 6 6 5 5 5 5 5 5 5 4 4 3 6 4 3 4 4 4 3 3 3 3 3 4 3 2 3 4 4 4 4 4 4 4
8 7 7 7 7 6 7 7 7 7 7 7 7 6 7 7 7 7 6 6 5 5 5 5 4 5 5 5 4 3 4 5 3 3 4 3 4 3 3 3 2 3 3 3 3 4 4 4 5 4 4 4
8 7 7 6 6 7 7 7 7 7 6 7 6 6 6 6 7 6 6 6 6 5 5 5 5 5 5 5 4 4 3 4 4 3 3 3 2 2 3 2 3 3 3 3 3 4 4 3 4 4 5 4
8 8 8 8 8 8 7 7 7 6 6 6 7 7 6 7 7 8 7 7 6 6 6 5 4 5 5 6 4 5 4 3 4 4 3 2 2 3 2 3 1 3 3 3 2 3 4 3 2 2 3 3
9 9 9 9 8 7 8 7 7 6 6 6 6 7 7 7 7 7 7 7 7 6 6 6 6 5 4 5 4 5 4 2 3 3 3 2 2 2 3 2 1 3 3 2 3 2 4 2 3 3 3 3
10 10 10 9 8 8 8 7 7 7 7 7 6 6 6 7 7 7 7 8 7 7 6 6 6 5 5 5 4 4 5 3 3 4 3 3 3 3 3 3 3 2 4 3 3 3 4 3 3 3 3 3
10 10 9 9 9 8 8 8 7 8 8 7 6 6 6 6 7 7 8 7 8 7 7 6 6 5 5 5 5 4 4 3 3 3 3 2 2 3 3 3 3 2 3 3 3 3 3 4 3 3 3 3
9 10 9 8 8 8 8 8 8 8 7 7 7 6 6 6 7 7 7 8 6 7 7 6 6 6 6 6 5 4 4 6 4 5 4 3 3 2 3 3 1 2 1 1 1 2 2 2 2 3 3 3
10 9 9 8 8 8 9 8 9 8 7 7 7 7 7 7 7 7 7 7 8 7 7 7 6 6 6 6 5 5 5 6 4 4 5 3 5 3 3 2 1 2 1 0 1 2 1 3 3 2 3 3
11 10 10 9 9 8 9 8 8 8 8 8 7 7 7 7 7 7 8 7 8 8 7 7 7 7 6 6 6 6 4 4 5 4 4 3 5 5 3 3 2 1 2 1 1 1 2 2 1 2 2 3
9 9 9 9 9 10 9 9 9 8 7 7 8 7 8 8 8 8 8 8 8 8 8 7 7 6 7 6 6 6 5 5 5 5 5 3 3 4 4 4 4 2 2 1 1 1 2 2 1 2 3 3
10 9 9 8 8 8 10 10 9 8 8 8 8 8 8 8 8 8 8 8 8 7 7 7 7 7 7 6 6 6 5 6 4 4 5 5 3 4 3 5 5 4 3 2 2 2 2 2 1 3 3 3
8 7 7 6 7 8 9 8 7 8 8 8 8 9 9 9 8 8 8 9 8 8 7 7 6 7 7 7 7 7 6 5 5 4 5 5 4 3 3 4 4 4 3 2 1 3 3 2 3 4 3 3
7 7 8 9 5 6 8 8 8 7 8 7 9 9 9 9 8 8 9 9 8 8 8 8 8 8 7 7 7 8 7 7 7 8 7 6 5 4 3 2 2 2 2 0 1 3 4 3 3 4 3 3
10 10 8 6 10 13 11 9 8 8 8 8 9 9 9 9 9 9 9 9 9 9 8 8 8 8 8 7 8 8 9 9 8 6 6 6 4 5 4 4 3 2 3 1 2 2 3 5 2 3 3 3
11 12 13 13 13 11 9 10 10 10 8 10 9 10 10 10 10 11 11 10 10 9 10 10 8 9 10 9 9 8 7 6 6 6 6 5 4 3 6 5 5 5 5 0 4 2 1 2 3 1 1 1
12 11 10 11 9 11 7 7 8 9 9 8 9 10 11 11 11 11 11 11 11 10 10 10 10 10 9 10 9 8 8 7 8 8 8 8 8 6 3 3 3 7 6 5 3 0 4 1 1 2 2 1
12 11 8 6 4 5 7 5 7 5 5 7 8 10 11 11 11 12 12 11 11 10 10 11 11 9 9 11 10 10 10 10 10 9 8 8 7 6 6 6 6 7 8 4 8 2 3 2 3 2 4 2
9 6 5 4 2 3 3 1 4 5 7 9 10 10 11 15 11 11 11 11 12 11 12 11 10 10 10 10 11 9 10 11 12 11 11 11 10 11 10 9 5 6 8 7 5 6 5 1 1 4 2 3
10 10 10 9 8 8 7 9 8 13 16 13 13 15 11 5 10 11 11 10 11 12 10 11 11 10 10 11 10 10 10 9 8 11 12 12 11 11 9 7 7 7 6 8 8 6 1 3 3 4 4 4
10 10 10 13 14 13 14 14 12 11 9 10 10 7 8 9 8 10 12 11 11 11 11 11 11 11 11 11 10 10 9 10 12 11 12 9 11 11 10 6 9 11 9 4 7 7 6 2 1 3 6 6
Wind_Direction
131 130 130 129 128 126 125 123 122 122 119 117 115 112 111 113 111 107 103 99 107 109 104 101 96 90 85 80 78 73 68 67 70 67 65 64 61 57 56 57 58 59 56 54 53 52 49 47 47 46 46 39
133 132 131 129 128 127 126 124 125 125 123 120 119 117 115 115 113 111 109 105 98 100 102 96 91 86 83 77 73 74 70 67 72 73 69 67 63 60 57 56 59 59 56 52 52 50 47 44 43 41 40 37
134 132 130 131 131 131 129 128 129 128 126 124 122 119 117 114 111 109 106 104 104 101 89 73 73 83 83 77 71 71 71 69 72 73 71 68 66 61 58 56 57 58 55 53 51 49 46 41 39 38 34 28
129 134 135 135 134 133 132 133 132 131 128 127 124 123 119 113 103 100 98 95 87 90 85 78 69 78 83 77 72 68 71 71 73 73 73 71 68 64 60 56 55 57 56 54 53 51 45 40 37 32 29 27
130 137 136 136 136 135 135 135 133 132 132 129 127 121 119 110 103 97 88 87 86 89 90 87 77 72 79 78 76 72 72 71 74 75 74 74 72 67 65 57 47 49 55 53 53 51 45 39 33 27 30 29
137 135 127 134 134 134 136 137 136 129 127 126 125 124 119 122 124 121 122 114 102 93 84 88 91 81 80 78 76 76 74 73 74 77 75 75 72 70 67 56 41 31 37 48 51 48 43 37 31 23 25 27
136 132 133 129 134 136 131 131 128 135 129 126 129 128 131 132 133 136 132 134 136 149 129 108 95 85 81 77 75 71 72 75 70 74 77 72 71 70 62 50 46 46 46 36 43 40 37 36 28 24 24 21
140 141 139 140 140 134 135 133 140 139 133 136 140 140 138 137 141 137 147 151 147 118 68 74 88 87 77 73 76 70 48 50 66 60 59 67 62 51 52 56 48 57 54 55 48 45 40 37 32 33 25 23
154 149 142 145 148 144 143 144 145 142 139 145 147 148 144 148 140 137 134 116 104 94 100 94 90 84 83 80 65 73 62 56 49 53 49 42 48 46 51 53 47 56 57 53 55 49 40 40 36 32 27 22
156 151 154 159 161 151 152 152 152 146 144 150 153 151 150 145 133 135 128 123 122 120 122 108 106 104 103 84 82 80 81 68 69 59 58 58 57 43 54 62 65 53 68 73 60 51 39 34 30 26 23 23
155 165 166 160 163 158 164 164 153 153 153 158 158 154 153 145 150 146 136 133 138 143 128 121 122 119 108 110 97 96 99 85 81 81 68 65 63 51 49 42 48 66 54 67 84 54 40 33 23 18 12 10
167 168 164 169 168 171 168 161 164 161 163 159 162 161 158 152 153 153 145 145 143 147 126 136 135 129 116 112 115 105 105 106 95 83 81 76 52 54 46 55 34 52 57 46 70 69 40 30 18 11 359 357
171 170 169 170 171 175 177 169 170 166 161 163 167 168 157 154 152 150 149 152 155 148 135 139 139 134 134 129 142 113 100 117 119 105 99 86 78 71 58 52 42 59 52 60 57 81 57 34 21 11 2 352
171 175 173 181 182 179 175 177 169 164 169 170 165 174 166 166 159 161 159 157 158 147 151 146 143 136 142 137 150 123 121 142 127 135 101 76 57 66 52 64 18 82 58 44 51 66 65 35 9 22 5 348
180 177 183 184 181 180 178 173 163 171 170 171 177 176 166 165 164 157 155 154 159 152 151 149 147 147 143 137 155 141 150 151 137 132 125 130 112 86 89 82 52 84 69 40 38 31 60 13 13 9 352 344
180 184 186 185 179 183 177 167 171 172 172 180 182 176 169 164 165 159 160 156 160 156 154 157 153 155 147 160 166 157 152 129 145 136 133 117 118 111 100 91 61 57 74 40 31 20 38 9 16 359 345 338
184 184 187 182 184 181 173 174 170 173 181 182 182 179 172 167 165 166 161 166 163 159 159 158 155 159 164 164 167 164 151 129 130 114 104 93 104 87 71 68 29 50 66 47 1 21 9 14 352 346 346 334
183 188 185 183 184 177 170 176 175 183 181 180 181 179 177 169 172 166 166 159 161 156 158 162 164 164 168 171 168 158 138 148 154 139 130 144 101 109 102 100 82 68 39 357 352 26 343 1 330 329 337 330
186 185 184 180 181 178 177 177 182 182 178 179 182 178 181 177 175 171 168 165 157 165 163 163 166 172 175 170 164 161 165 155 168 148 158 154 134 125 114 129 128 123 161 223 7 310 336 323 315 335 316 318
185 186 186 184 182 177 181 179 182 182 183 182 179 181 180 183 178 173 172 167 162 163 171 169 172 179 170 170 161 167 162 150 168 164 160 186 150 152 173 148 167 148 171 182 261 277 305 291 306 306 306 307
186 186 188 186 183 183 180 183 186 184 181 180 181 182 184 184 181 177 175 172 172 167 172 171 171 174 174 168 164 171 171 170 174 167 165 189 188 163 170 173 183 201 197 213 235 260 286 284 286 296 283 277
187 189 184 186 188 184 187 192 189 183 180 187 185 182 188 182 183 177 179 178 176 175 176 174 170 169 174 169 166 174 172 183 175 175 167 177 202 180 158 177 182 202 206 197 248 288 278 286 262 258 270 261
183 179 187 188 188 192 196 199 193 182 187 190 183 191 186 182 185 179 182 183 178 172 174 170 169 170 179 171 172 174 177 177 183 180 180 176 197 199 189 180 191 191 181 219 301 298 294 299 287 270 250 258
173 175 184 188 191 209 211 200 193 195 195 183 193 194 185 186 184 182 186 185 180 178 176 173 178 179 176 177 172 176 179 188 188 187 181 193 181 193 211 187 186 165 149 65 335 305 313 304 293 288 260 259
180 184 192 195 197 205 200 195 194 197 200 195 199 191 189 187 190 188 188 186 180 185 178 181 180 178 181 180 180 184 193 190 189 186 183 177 184 177 190 231 194 194 134 111 330 351 324 327 305 281 302 272
191 193 191 189 200 200 193 192 194 203 200 202 197 194 191 193 194 192 189 188 188 186 183 181 181 184 184 181 189 193 189 182 186 180 178 166 186 202 187 209 189 191 132 221 189 152 319 340 335 313 32 346
198 199 200 196 198 193 194 209 206 204 200 193 195 197 198 198 197 193 195 191 188 188 190 188 183 190 185 187 183 183 188 186 191 190 187 183 182 186 207 221 208 193 195 156 134 114 89 270 53 288 357 346
202 201 197 204 177 193 187 193 200 200 187 197 196 205 206 207 199 195 196 190 190 193 193 190 192 186 187 191 188 187 186 190 196 191 192 187 190 174 184 206 220 199 204 152 146 140 170 210 115 300 257 227
192 173 167 159 97 116 163 80 172 196 217 205 203 207 206 212 198 197 197 194 195 194 195 194 193 190 192 190 192 190 193 195 197 194 195 188 186 190 188 191 203 212 203 212 223 133 112 49 41 218 214 110
185 186 182 169 174 180 192 208 194 205 209 202 203 211 209 199 201 199 201 198 198 199 195 198 197 194 191 196 193 196 198 195 192 201 195 195 190 195 207 184 176 206 214 215 230 237 209 151 171 178 217 105
186 192 193 194 198 201 202 210 219 218 217 209 213 211 201 203 198 202 202 202 201 200 201 199 198 198 198 197 197 197 195 198 203 200 198 190 195 202 191 181 192 196 195 184 249 236 241 232 180 172 133 208